Regional Weather Roundup
Issued by NWS

Home | Current Version | Previous Version | Graphics & Text | Print | Product List | Glossary On
Versions: 1 2 3 4 5 6 7 8 9 10 11 12 13 14 15 16 17 18 19 20 21 22 23 24 25 26 27 28 29 30 31 32 33 34 35 36 37 38 39 40 41 42 43 44 45 46 47 48 49 50
000
ASUS45 KCYS 172210
RWRWY

WYOMING REGIONAL WEATHER ROUNDUP
NATIONAL WEATHER SERVICE CHEYENNE WY
300 PM MST WED JAN 17 2018

NOTE:  "FAIR" INDICATES FEW OR NO CLOUDS BELOW 12,000 FEET
WITH NO SIGNIFICANT WEATHER AND/OR OBSTRUCTIONS TO VISIBILITY.

WYZ001-172300-
YELLOWSTONE NATIONAL PARK

CITY           SKY/WX    TMP DP  RH WIND       PRES   REMARKS
LK YELLOWSTONE   N/A     27  20  75 CALM      30.33S
W YELLOWSTONE  NOT AVBL

$$
WYZ002>013-054>058-071-098>099-172300-
NORTHERN WYOMING

CITY           SKY/WX    TMP DP  RH WIND       PRES   REMARKS
JACKSON        FAIR      26  14  60 NE5       30.36S WCI  20
CODY           FAIR      27  17  66 CALM      30.22F
GREYBULL       FAIR      23  10  57 CALM      30.25F
WORLAND        FAIR      27  15  61 N3        30.26S
SHERIDAN       FAIR      40  23  50 SW5       30.17F
BUFFALO        FAIR      39  19  44 S14       30.19F WCI  31
GILLETTE       FAIR      40  24  53 S6        30.21F
HULETT         FAIR      37  21  52 SW8       30.21S WCI  31
NEWCASTLE      FAIR      37  19  48 N3        30.25S

$$
WYZ014>020-022>026-101>103-172300-
CENTRAL WYOMING

CITY           SKY/WX    TMP DP  RH WIND       PRES   REMARKS
BIG PINEY      FAIR      39  19  44 CALM      30.31F
PINEDALE       FAIR      34  19  55 E3        30.33S
DUBOIS         FAIR      43   9  24 W9        30.23F
LANDER         FAIR      29  18  63 CALM      30.25F
RIVERTON       FAIR      27  14  58 NE6       30.27F WCI  20
CASPER         FAIR      43  15  32 SW22      30.25F
DOUGLAS        FAIR      46  21  37 NW8       30.25F

$$
WYZ021-027>030-104>119-172300-
SOUTHERN WYOMING

CITY           SKY/WX    TMP DP  RH WIND       PRES   REMARKS
EVANSTON       FAIR      41  27  57 SW7       30.32F
FORT BRIDGER   FAIR      45  25  45 W9        30.33F
ROCK SPRINGS   FAIR      41  22  46 W12       30.31F
DIXON            N/A     42  10  26 SW7       30.37R
RAWLINS        FAIR      40  16  37 SW10G20   30.31F WCI  33
SARATOGA       FAIR      41  14  33 W13G20    30.31F
LARAMIE        FAIR      40  14  34 N8        30.27S WCI  34
CHEYENNE       FAIR      45  14  28 NW20      30.25S
TORRINGTON     FAIR      47  26  44 N7        30.24F

$$



USA.gov is the U.S. government's official web portal to all federal, state and local government web resources and services.